CAPE
568 711 841 894 911 958 961 959 1116 1177 893 924 1159 1217 1215 1153 939 629 382 28 0 0 0 0 0 0 0 0 0 0 0 0 0 1 0 0 0 0 0 0 0 0 0
708 819 823 1034 1069 953 945 1009 1212 1204 1065 1013 1092 1100 1111 1078 848 595 353 14 0 0 0 0 0 0 0 0 0 0 0 0 0 0 0 0 0 0 0 0 0 0 4
829 862 940 1031 1054 954 1012 1081 1197 1294 1269 1152 1152 890 782 827 667 529 279 12 0 0 0 0 0 0 0 0 0 0 0 0 0 0 0 0 0 0 0 0 0 0 1
1063 1082 1181 1203 1177 1077 1151 1209 1204 1306 1373 1327 1290 1073 882 731 640 486 148 0 0 0 0 0 0 0 0 0 0 0 0 0 0 0 0 0 0 0 0 0 0 0 0
1335 1287 1179 1289 1497 1491 1391 1371 1338 1412 1465 1486 1371 1220 1066 852 644 475 122 0 0 0 0 0 0 0 0 0 0 0 0 0 0 0 0 0 0 0 0 0 0 0 0
1356 1458 1486 1675 1511 1474 1692 1651 1646 1457 1492 1550 1430 1280 1142 911 600 236 144 5 0 0 0 0 0 0 0 0 0 0 0 0 0 0 0 0 0 0 0 0 0 0 0
1892 1813 1632 1406 1240 1313 1286 1768 1808 1651 1488 1417 1444 1392 1194 1010 533 182 38 40 0 0 0 0 0 0 0 0 0 0 0 0 0 0 0 0 0 0 0 0 0 0 0
2282 2336 2166 1937 1653 1374 1546 1642 1872 1788 1624 1629 1468 1400 1198 980 461 176 101 44 0 0 0 0 0 0 0 0 0 0 0 0 0 0 0 0 0 0 0 0 0 0 0
1555 2419 2612 2495 2420 2204 2026 2011 1926 1936 1891 1725 1639 1257 927 588 45 27 12 3 0 0 0 0 0 0 0 0 0 0 0 0 0 0 0 0 0 0 0 0 0 0 0
1182 1330 2464 2731 2513 2365 2263 2267 2095 1060 1345 1347 1034 818 490 183 5 0 0 1 1 0 0 0 0 0 0 0 0 0 0 0 0 0 0 0 0 0 0 0 0 0 0
1276 1258 1168 1919 2798 2736 2631 2664 1884 1021 1171 876 710 502 298 31 3 0 0 0 0 1 0 0 0 0 0 0 0 0 0 0 0 0 0 0 0 0 0 0 0 0 0
698 798 874 975 1371 2157 2398 2410 2044 1630 1363 967 507 308 90 46 4 0 0 0 0 0 0 0 0 0 0 0 0 0 0 0 0 0 0 0 0 0 0 0 0 0 0
705 916 819 895 1054 1132 1789 1732 1497 1407 1064 707 590 333 47 1 0 0 0 0 0 0 0 0 0 0 0 0 0 0 0 0 0 0 0 0 0 0 0 0 0 0 0
528 790 1202 1102 1005 1263 1299 1249 1194 1088 924 787 594 285 47 0 0 3 3 0 0 0 0 0 0 0 0 0 0 0 0 0 0 0 0 0 0 0 0 0 0 0 0
265 690 1071 1214 1361 1184 1314 1147 984 999 780 600 334 186 23 0 0 1 2 1 3 0 0 0 0 0 0 0 0 0 0 0 0 0 0 0 0 0 0 0 0 0 1
3 620 805 555 630 822 861 884 206 345 365 255 187 177 98 15 0 0 1 0 1 0 0 0 0 0 0 0 0 0 0 0 0 0 0 0 0 0 0 0 0 0 12
0 31 977 491 408 183 659 695 721 174 0 1 32 3 17 0 0 0 1 0 0 0 0 0 0 0 0 0 0 0 0 0 0 0 0 0 0 0 0 0 24 38 31
159 454 565 637 392 353 78 476 627 507 503 259 0 0 0 0 0 0 0 0 0 0 0 0 0 0 0 0 0 0 0 0 0 0 0 0 0 0 0 67 44 36 59
245 382 606 527 344 438 332 288 562 441 308 200 0 0 0 0 0 0 0 2 4 4 0 0 0 0 0 0 0 0 0 0 0 0 0 0 0 5 14 88 48 27 51
318 212 148 218 610 572 254 6 310 352 159 38 1 5 0 0 0 1 2 3 3 0 0 0 0 0 0 0 0 0 0 0 0 6 0 4 16 12 14 54 12 50 71
0 63 58 116 251 405 454 134 10 180 179 22 1 3 0 0 0 0 2 3 1 0 0 0 0 0 0 0 0 0 0 1 13 21 3 8 0 55 81 7 23 5 41
0 0 223 526 578 364 285 333 136 151 124 49 0 3 0 1 3 1 1 0 0 0 0 0 0 0 0 0 0 0 0 0 0 5 43 67 31 20 24 40 64 90 102
0 1 1 152 352 365 495 710 452 327 365 120 25 0 0 2 3 2 0 0 0 0 0 0 0 0 0 0 0 0 0 0 9 60 29 35 61 44 51 52 112 135 119
0 3 3 98 351 509 483 309 444 340 202 197 3 1 1 3 3 3 0 0 0 0 0 0 0 0 0 0 0 0 0 0 4 10 0 0 0 23 22 138 109 49 11
3 4 11 3 1 151 417 292 459 433 288 86 8 2 2 3 4 2 0 0 0 0 0 0 0 0 0 0 0 0 0 0 0 0 0 2 23 12 91 73 0 0 0
6 2 1 3 4 2 321 180 164 308 205 84 7 3 1 2 2 1 0 0 0 0 0 0 0 0 0 1 0 0 0 0 0 0 0 0 13 73 56 0 0 0 0
CIN
-330 -288 -258 -229 -201 -173 -143 -118 -86 -77 -95 -88 -65 -44 -25 -20 -31 -59 -82 -168 0 0 0 0 0 0 0 0 0 0 0 0 0 0 0 0 0 0 0 0 0 0 0
-346 -334 -281 -249 -244 -224 -188 -148 -112 -102 -118 -93 -77 -68 -54 -35 -41 -69 -111 -202 0 0 0 0 0 0 0 0 0 0 0 0 0 0 0 0 0 0 0 0 0 0 0
-383 -321 -311 -308 -292 -268 -238 -209 -177 -144 -121 -109 -106 -122 -122 -91 -100 -109 -158 -220 0 0 0 0 0 0 0 0 0 0 0 0 0 0 0 0 0 0 0 0 0 0 0
-376 -340 -295 -285 -280 -269 -262 -239 -195 -169 -142 -131 -116 -110 -118 -135 -143 -153 -229 0 0 0 0 0 0 0 0 0 0 0 0 0 0 0 0 0 0 0 0 0 0 0 0
-371 -344 -296 -281 -292 -286 -285 -275 -240 -206 -162 -146 -136 -117 -124 -140 -139 -166 -278 0 0 0 0 0 0 0 0 0 0 0 0 0 0 0 0 0 0 0 0 0 0 0 0
-386 -392 -340 -280 -291 -286 -282 -267 -268 -247 -203 -167 -166 -162 -149 -178 -209 -283 -270 -360 0 0 0 0 0 0 0 0 0 0 0 0 0 0 0 0 0 0 0 0 0 0 0
-264 -300 -343 -356 -364 -359 -350 -266 -255 -284 -274 -264 -242 -208 -194 -212 -322 -396 -406 -400 0 0 0 0 0 0 0 0 0 0 0 0 0 0 0 0 0 0 0 0 0 0 0
-214 -158 -204 -241 -332 -385 -328 -305 -244 -246 -263 -193 -192 -221 -220 -297 -385 -422 -443 -407 0 0 0 0 0 0 0 0 0 0 0 0 0 0 0 0 0 0 0 0 0 0 0
-261 -142 -139 -149 -198 -210 -199 -206 -186 -143 -137 -156 -131 -178 -192 -208 -468 -551 -137 -82 0 0 0 0 0 0 0 0 0 0 0 0 0 0 0 0 0 0 0 0 0 0 0
-275 -286 -125 -113 -132 -159 -150 -111 -84 -255 -166 -159 -230 -237 -225 -331 -142 0 0 0 0 0 0 0 0 0 0 0 0 0 0 0 0 0 0 0 0 0 0 0 0 0 0
-215 -226 -235 -132 -45 -43 -51 -39 -83 -223 -145 -197 -264 -311 -309 -76 -71 0 0 0 0 0 0 0 0 0 0 0 0 0 0 0 0 0 0 0 0 0 0 0 0 0 0
-246 -216 -207 -195 -140 -78 -45 -35 -37 -83 -111 -166 -176 -319 -420 -429 -373 0 0 0 0 0 0 0 0 0 0 0 0 0 0 0 0 0 0 0 0 0 0 0 0 0 0
-177 -127 -162 -168 -172 -173 -68 -54 -86 -82 -99 -177 -206 -279 -477 0 0 0 0 0 0 0 0 0 0 0 0 0 0 0 0 0 0 0 0 0 0 0 0 0 0 0 0
-165 -109 -90 -90 -115 -97 -101 -91 -78 -101 -96 -100 -147 -286 -466 0 0 0 0 0 0 0 0 0 0 0 0 0 0 0 0 0 0 0 0 0 0 0 0 0 0 0 0
-206 -112 -65 -56 -51 -66 -48 -71 -74 -75 -119 -161 -223 -271 -444 0 0 0 0 0 0 0 0 0 0 0 0 0 0 0 0 0 0 0 0 0 0 0 0 0 0 0 -3
-5 -84 -71 -132 -129 -89 -71 -67 -366 -288 -267 -302 -330 -289 -335 -474 0 0 0 0 0 0 0 0 0 0 0 0 0 0 0 0 0 0 0 0 0 0 0 0 0 0 -22
0 -65 -41 -128 -156 -249 -110 -66 -50 -318 0 -15 -442 -226 -452 -16 0 0 0 0 0 0 0 0 0 0 0 0 0 0 0 0 0 0 0 0 0 0 0 -22 -37 -30 -24
-195 -129 -111 -58 -95 -161 -282 -111 -60 -89 -124 -204 0 0 0 0 0 0 0 0 0 0 0 0 0 0 0 0 0 0 0 0 0 0 0 0 0 0 -9 -34 -40 -24 -20
-161 -111 -33 -43 -82 -84 -184 -151 -59 -81 -155 -217 0 0 0 0 0 0 0 0 0 0 0 0 0 0 0 0 0 0 0 0 0 0 0 0 0 -74 -61 -27 -34 -44 -33
-85 -145 -113 -69 -25 -57 -163 -355 -96 -88 -152 -246 0 -80 0 0 0 0 0 0 0 0 0 0 0 0 0 0 0 0 0 0 0 -39 -4 -33 -64 -68 -48 -49 -77 -44 -26
0 -87 -73 -92 -64 -60 -62 -140 -245 -104 -110 -235 0 0 0 0 0 0 0 0 0 0 0 0 0 0 0 0 0 0 0 -11 -30 -25 -40 -94 -3 -63 -61 -83 -69 -85 -44
0 0 -54 -7 -27 -68 -84 -70 -104 -111 -126 -215 0 0 0 0 0 0 0 0 0 0 0 0 0 0 0 0 0 0 0 0 0 -22 -76 -66 -86 -84 -62 -33 -26 -33 -22
0 0 0 -76 -38 -42 -22 -8 -27 -41 -41 -129 -303 0 0 0 0 0 0 0 0 0 0 0 0 0 0 0 0 0 0 0 -35 -50 -37 -51 -33 -44 -48 -46 -27 -17 -12
0 0 0 -70 -9 -6 -11 -22 -15 -23 -54 -69 -296 0 0 0 0 0 0 0 0 0 0 0 0 0 0 0 0 0 0 0 -50 -39 0 0 -10 -53 -66 -32 -22 -17 -11
0 -12 -17 -2 0 -29 -6 -8 0 -6 -16 -104 -168 0 0 0 0 0 0 0 0 0 0 0 0 0 0 0 0 0 0 0 0 0 0 -98 -76 -56 -39 -35 0 0 0
0 0 0 0 0 0 -9 -17 -38 -6 -23 -51 -103 -65 0 0 0 0 0 0 0 0 0 0 0 0 0 -37 0 0 0 0 0 0 0 -31 -93 -62 -54 0 0 0 0
Wind_Speed
11 10 11 16 20 19 16 18 19 13 12 14 14 11 9 4 3 1 4 6 7 9 10 10 9 9 10 11 11 10 9 7 5 8 7 7 8 9 12 13 14 13 12
15 13 14 14 16 18 17 14 10 13 10 12 12 10 6 5 2 2 2 3 4 5 7 8 8 7 8 10 11 11 10 9 8 6 7 6 7 8 10 13 15 14 11
14 14 14 12 12 14 14 12 9 7 7 8 8 8 7 6 7 5 3 1 2 2 4 5 5 5 5 6 8 9 10 10 9 8 7 6 8 8 10 12 14 14 12
13 20 17 15 15 14 12 11 10 9 8 8 8 7 7 8 7 6 5 3 3 3 4 5 5 3 4 5 5 7 9 9 10 8 6 6 7 9 10 11 12 14 12
5 14 15 12 15 12 13 13 12 11 12 11 11 11 11 10 10 9 8 6 5 4 3 4 2 1 1 5 6 6 6 7 7 6 8 7 6 8 9 13 14 14 12
10 11 8 10 10 12 12 14 13 13 14 16 15 15 15 14 13 13 12 10 8 6 4 2 2 2 2 3 6 5 3 3 5 6 7 8 9 10 12 14 15 13 11
24 19 12 11 14 15 16 15 16 17 16 19 19 20 20 20 19 18 17 15 12 10 7 3 1 2 2 3 5 5 5 5 6 5 6 7 9 9 10 11 12 11 13
26 31 28 25 19 19 20 20 23 25 24 23 25 27 27 26 24 23 22 21 18 14 11 7 4 2 3 3 4 5 5 6 5 5 5 6 8 7 8 9 10 11 12
27 30 31 33 31 30 28 26 27 31 30 29 28 29 30 35 34 31 30 28 24 20 15 11 9 5 3 4 5 5 5 7 8 8 6 6 6 7 8 8 10 10 12
28 30 32 35 33 33 31 30 33 31 31 29 29 28 28 30 28 28 43 38 35 23 19 15 11 9 6 5 5 4 3 2 2 4 4 6 5 5 6 8 10 12 14
28 31 32 32 34 33 30 29 28 28 28 26 29 29 26 30 27 26 31 31 38 44 25 19 17 10 8 7 6 6 5 1 1 3 4 5 5 6 6 7 9 11 13
31 32 33 33 32 31 31 27 23 22 21 23 21 21 26 24 21 18 18 19 20 24 32 26 21 14 10 8 9 6 5 3 4 5 6 7 6 5 6 7 8 9 10
32 33 33 34 34 31 27 21 19 16 17 17 17 18 17 16 14 10 7 7 6 5 18 30 22 14 11 11 12 12 8 5 4 5 6 8 7 8 8 8 8 8 10
35 34 33 33 33 31 26 21 17 14 15 16 17 17 18 17 14 8 5 6 6 8 10 10 18 17 15 12 11 11 5 4 5 5 7 8 8 7 8 8 8 8 11
37 35 33 32 32 31 28 24 19 18 18 16 17 18 17 17 12 8 4 9 7 12 7 5 8 10 20 10 9 7 6 3 5 7 6 8 10 9 9 8 9 11 13
39 38 35 33 32 31 30 28 24 22 18 18 18 16 16 15 10 6 8 9 16 17 15 12 17 15 17 12 9 8 6 6 8 8 7 8 10 10 11 10 10 13 15
41 40 36 33 33 33 32 31 32 24 21 19 17 15 14 11 9 6 8 10 12 16 12 12 15 16 14 11 10 9 7 6 7 7 8 9 10 12 12 12 12 15 17
43 40 37 35 32 31 30 31 30 30 28 24 20 18 14 12 10 9 10 10 13 15 12 10 13 12 13 12 11 10 9 7 8 10 10 10 12 12 13 12 14 16 19
41 37 35 32 31 31 32 30 30 29 28 26 21 21 18 12 9 8 11 14 14 15 14 13 13 13 13 14 12 11 11 10 10 10 11 11 12 15 16 15 17 18 17
39 33 33 32 32 33 32 31 30 27 26 25 23 19 16 14 13 11 10 11 12 14 15 14 13 13 13 13 13 11 10 11 12 10 11 12 15 18 15 16 18 13 14
36 36 35 33 33 33 32 31 29 27 24 22 21 18 15 16 15 13 11 11 11 12 13 13 12 12 12 12 12 11 11 9 9 10 12 12 16 14 16 16 18 15 14
34 36 36 35 35 34 34 32 29 24 24 23 21 18 12 13 15 15 13 12 11 11 11 12 12 12 12 12 11 12 13 12 11 11 11 14 14 19 13 11 12 13 13
35 37 37 38 37 36 36 34 31 27 25 25 23 19 14 14 14 16 16 15 12 11 10 12 12 11 11 10 9 9 10 11 9 8 10 12 12 9 10 14 13 12 11
36 36 38 40 38 36 36 34 32 25 24 25 22 19 18 18 18 16 16 15 13 12 9 10 10 9 9 9 9 8 10 8 6 9 5 9 14 12 12 12 12 10 11
36 37 37 37 36 37 36 34 30 24 23 22 23 21 22 20 19 18 15 13 11 10 9 9 9 9 9 10 9 10 13 12 10 8 9 13 9 7 8 10 10 11 11
38 35 34 34 36 36 37 32 29 25 23 23 23 25 24 20 16 15 14 12 9 9 8 8 8 8 8 8 11 12 10 9 10 7 10 9 7 6 7 8 9 11 11
Wind_Direction
168 172 171 171 176 176 173 174 176 162 160 164 163 163 166 180 183 218 326 330 335 338 339 349 354 343 332 325 328 341 353 8 35 14 26 39 20 13 358 0 5 6 13
167 167 172 173 174 177 179 178 176 175 170 172 168 166 166 174 220 252 309 342 342 337 341 345 350 348 333 322 322 326 336 343 2 17 27 47 37 25 11 5 358 358 8
170 170 173 178 181 185 187 191 197 207 200 188 184 183 182 182 178 181 182 150 120 48 4 349 350 346 336 332 329 332 331 336 351 8 19 35 21 18 11 4 0 1 8
178 186 184 186 190 193 200 205 219 229 227 228 220 220 216 208 207 207 208 237 299 334 346 350 346 339 319 310 324 329 329 339 343 3 20 27 19 359 1 358 356 354 358
204 192 205 209 204 211 209 211 219 234 245 245 242 231 231 235 235 233 237 244 257 287 318 339 358 123 298 297 306 317 333 346 358 3 348 2 5 0 357 345 344 348 356
302 292 238 236 243 239 245 242 238 235 244 256 245 244 247 251 247 238 240 240 239 247 272 315 10 144 177 268 293 311 340 357 346 339 335 332 334 339 342 340 340 349 358
302 311 301 272 261 256 270 266 255 250 249 248 253 256 250 250 246 241 241 253 251 255 256 255 165 158 190 282 293 310 321 327 329 332 330 331 331 337 346 350 353 359 353
313 298 302 299 291 287 284 271 269 270 270 272 265 267 267 263 256 249 244 253 254 249 248 242 234 174 204 248 281 296 316 328 339 340 344 346 343 359 2 1 3 1 2
321 313 307 301 299 293 288 285 284 281 277 272 278 278 274 276 274 263 254 254 253 253 252 252 255 237 207 238 263 280 303 317 324 331 351 8 27 19 13 17 3 357 350
325 322 319 310 305 300 296 292 287 286 283 275 274 277 277 278 282 292 296 300 262 249 251 252 244 251 228 217 251 250 260 279 339 356 357 6 14 13 9 356 355 346 342
325 326 325 323 312 303 300 296 293 290 284 280 276 275 273 281 278 282 283 288 283 277 250 251 258 244 223 223 249 265 275 240 289 325 327 334 344 346 342 342 347 346 344
321 319 316 320 322 317 305 303 301 297 293 289 289 287 286 286 282 293 277 274 282 295 264 259 257 242 230 217 249 268 276 275 289 297 304 307 314 325 331 334 337 342 343
314 313 315 317 318 319 315 309 305 302 299 294 293 292 295 298 296 285 279 252 269 234 233 248 252 237 229 235 255 267 275 273 280 287 296 307 317 322 331 331 332 338 335
307 309 311 315 317 317 315 312 305 300 299 296 296 293 298 303 306 306 264 213 183 146 181 210 247 245 243 242 244 265 258 258 268 279 296 310 325 329 330 332 330 333 330
305 307 310 312 312 312 311 309 302 296 294 290 289 289 289 295 297 301 248 171 178 152 181 236 201 197 247 191 192 215 234 241 270 279 286 301 308 316 323 329 327 326 322
303 303 305 308 308 309 309 306 303 301 291 284 290 284 285 284 282 246 203 179 160 156 154 160 170 181 181 190 212 228 248 262 274 274 275 293 302 310 317 324 322 319 319
299 299 299 302 304 305 305 303 297 301 297 293 289 278 278 282 272 238 201 190 182 172 178 181 184 191 200 217 224 239 240 244 255 259 275 289 299 305 310 314 319 316 319
298 295 295 294 298 303 303 300 299 295 292 293 295 290 281 280 261 241 215 208 199 201 209 217 208 213 224 222 238 243 249 244 247 263 273 284 294 303 307 309 314 310 313
302 300 293 289 294 299 302 300 297 295 291 291 293 295 294 284 262 242 219 229 226 221 224 221 226 223 216 240 239 248 255 247 245 260 274 278 286 297 302 305 310 308 312
302 303 293 288 291 294 298 300 296 293 293 291 288 289 285 285 282 271 248 252 239 227 213 221 230 224 215 232 237 247 258 264 257 254 269 281 288 293 294 303 309 311 316
300 294 288 288 288 292 296 299 296 290 292 295 293 290 279 273 271 263 248 234 230 223 220 223 220 218 229 236 231 237 250 260 255 262 277 281 292 289 297 307 311 309 309
299 291 286 285 285 288 290 293 297 290 289 292 297 295 274 268 269 264 249 247 250 237 228 226 228 233 235 241 235 239 243 245 262 264 266 288 286 291 296 301 307 310 311
295 288 284 281 280 284 285 286 291 289 286 290 291 288 272 263 261 256 251 249 236 229 236 245 244 242 249 239 235 233 232 241 239 242 284 288 294 295 305 309 310 312 311
293 288 281 276 279 281 283 285 288 288 286 291 291 284 275 266 261 256 252 241 236 234 228 234 235 233 233 217 215 231 216 215 240 205 242 293 300 299 305 310 314 314 315
295 288 282 277 278 278 281 284 286 286 289 289 288 285 284 276 262 258 249 235 233 225 229 229 238 236 225 224 226 213 200 204 197 210 276 296 290 278 298 311 317 319 319
291 288 284 277 274 275 275 283 285 288 291 294 289 287 279 269 252 243 248 245 233 240 241 244 241 228 219 204 186 181 189 192 190 240 286 292 285 283 300 306 311 316 317